Montpelier, VT

1:00 PM EDT on April 30, 2017 (GMT -0400)
Knapp State

Weather History for KMPV - December, 2012

Change the Weather History Date:

Monday, December 10, 2012

  Actual Average Record
Temperature  
Mean Temperature 36 °F 25 °F  
Max Temperature 44 °F 33 °F 55 °F (1966)
Min Temperature 28 °F 17 °F -14 °F (1949)
Degree Days  
Heating Degree Days 29 40  
Month to date heating degree days 306 379  
Since 1 July heating degree days 2093 2225  
Cooling Degree Days 0 0  
Month to date cooling degree days 0  
Year to date cooling degree days 264  
Moisture  
Dew Point 35 °F    
Average Humidity 93    
Maximum Humidity 100    
Minimum Humidity 85    
Precipitation  
Precipitation 0.84 in 0.10 in 0.93 in (1957)
Month to date precipitation 1.66 1.00  
Year to date precipitation 32.14 35.53  
Sea Level Pressure  
Sea Level Pressure 29.76 in    
Wind  
Wind Speed 7 mph (SSW)    
Max Wind Speed 21 mph    
Max Gust Speed 29 mph    
Visibility 6 miles    
Events Rain , Snow    
T = Trace of Precipitation, MM = Missing Value Source: NWS Daily Summary

Daily Weather History Graph

Daily Weather History Graph

Search for Another Location

Airport or City:

Trip Planner

Search our weather history database for the weather conditions in past years. The results will help you decide how hot, cold, wet, or windy it might be!

Date:

Astronomy

Dec. 10, 2012 Rise Set
Actual Time 7:15 AM EST 4:11 PM EST
Civil Twilight 6:42 AM EST 4:44 PM EST
Nautical Twilight 6:05 AM EST 5:20 PM EST
Astronomical Twilight 5:30 AM EST 5:56 PM EST
Moon 3:50 AM EST (12/10) 2:02 PM EST (12/10)
Length of Visible Light 10h 02m
Length of Day
8h 56m
Waning Crescent, 10% of the Moon is Illuminated
Dec 10
Waning Crescent
Dec 13
New
Dec 20
First Quarter
Dec 28
Full
Jan 4
Last Quarter

Hourly Weather History & Observations

Time (EST) Temp. Windchill Dew Point Humidity Pressure Visibility Wind Dir Wind Speed Gust Speed Precip Events Conditions
12:00 AM 28.4 °F - 24.8 °F 86% 30.10 in 2.0 mi Calm Calm - N/A Snow Light Snow
12:07 AM 28.4 °F 24.6 °F 26.6 °F 93% 30.09 in 1.8 mi East 3.5 mph - 0.01 in Snow Light Snow
12:19 AM 28.4 °F 24.6 °F 26.6 °F 93% 30.08 in 2.5 mi ENE 3.5 mph - 0.01 in Snow Light Snow
12:26 AM 28.4 °F - 26.6 °F 93% 30.08 in 4.0 mi Calm Calm - 0.01 in Snow Light Snow
12:51 AM 30.0 °F 26.5 °F 28.0 °F 92% 30.12 in 5.0 mi Variable 3.5 mph - 0.02 in Snow Light Snow
1:19 AM 33.8 °F 26.4 °F 30.2 °F 87% 30.05 in 2.0 mi SSE 9.2 mph 18.4 mph 0.01 in Snow Light Snow
1:26 AM 33.8 °F 26.4 °F 30.2 °F 87% 30.05 in 1.5 mi South 9.2 mph 20.7 mph 0.02 in Snow Light Snow
1:29 AM 33.8 °F 24.8 °F 30.2 °F 87% 30.05 in 1.0 mi South 12.7 mph 20.7 mph 0.04 in Snow Light Snow
1:44 AM 33.8 °F 25.8 °F 30.2 °F 87% 30.03 in 1.5 mi South 10.4 mph - 0.10 in Snow Light Snow
1:51 AM 33.1 °F 24.4 °F 30.9 °F 92% 30.07 in 2.0 mi SSE 11.5 mph - 0.11 in Snow Light Snow
1:59 AM 33.8 °F 25.3 °F 30.2 °F 87% 30.03 in 1.8 mi South 11.5 mph - 0.01 in Snow Light Snow
2:05 AM 33.8 °F 25.3 °F 30.2 °F 87% 30.03 in 2.5 mi South 11.5 mph - 0.02 in Snow Light Snow
2:19 AM 33.8 °F 25.3 °F 30.2 °F 87% 30.02 in 2.0 mi South 11.5 mph 18.4 mph 0.03 in Snow Light Snow
2:51 AM 33.1 °F 24.9 °F 30.9 °F 92% 30.03 in 2.5 mi South 10.4 mph - 0.04 in Rain Light Rain
3:06 AM 33.8 °F 27.7 °F 32.0 °F 93% 29.98 in 4.0 mi South 6.9 mph - 0.01 in Rain Light Rain
3:17 AM 33.8 °F 27.7 °F 32.0 °F 93% 29.97 in 5.0 mi SSE 6.9 mph - 0.01 in Rain Light Rain
3:51 AM 34.0 °F 27.2 °F 32.0 °F 92% 30.00 in 6.0 mi South 8.1 mph - 0.03 in Rain Light Rain
4:43 AM 33.8 °F 27.7 °F 33.8 °F 100% 29.92 in 8.0 mi SSE 6.9 mph - 0.01 in Rain Light Rain
4:51 AM 34.0 °F 28.0 °F 33.1 °F 96% 29.96 in 10.0 mi South 6.9 mph - 0.01 in Rain Light Rain
5:51 AM 35.1 °F 30.1 °F 34.0 °F 96% 29.91 in 10.0 mi South 5.8 mph - 0.02 in Rain Light Rain
6:48 AM 35.6 °F 29.2 °F 33.8 °F 93% 29.83 in 6.0 mi South 8.1 mph - 0.06 in Rain Rain
6:51 AM 35.1 °F 28.6 °F 34.0 °F 96% 29.86 in 6.0 mi South 8.1 mph - 0.06 in Rain Rain
7:31 AM 35.6 °F 29.9 °F 33.8 °F 93% 29.80 in 5.0 mi South 6.9 mph - 0.08 in Rain Rain
7:51 AM 36.0 °F 29.0 °F 34.0 °F 93% 29.83 in 8.0 mi SSW 9.2 mph - 0.10 in Rain Light Rain
8:51 AM 36.0 °F 29.6 °F 35.1 °F 97% 29.79 in 5.0 mi South 8.1 mph - 0.08 in Rain Light Rain
9:20 AM 37.4 °F - 35.6 °F 93% 29.73 in 3.0 mi Calm Calm - N/A Rain Rain
9:26 AM 37.4 °F 33.8 °F 35.6 °F 93% 29.74 in 4.0 mi Variable 4.6 mph - 0.04 in Rain Light Rain
9:51 AM 37.0 °F 32.4 °F 36.0 °F 96% 29.75 in 9.0 mi South 5.8 mph - 0.04 in Rain Light Rain
10:51 AM 37.0 °F 34.5 °F 36.0 °F 96% 29.70 in 10.0 mi South 3.5 mph - 0.00 in   Overcast
11:51 AM 37.9 °F 32.7 °F 37.0 °F 97% 29.68 in 10.0 mi South 6.9 mph - N/A   Overcast
12:51 PM 39.0 °F 34.8 °F 37.9 °F 96% 29.65 in 10.0 mi South 5.8 mph - N/A   Overcast
1:51 PM 39.9 °F 35.1 °F 39.0 °F 97% 29.62 in 10.0 mi South 6.9 mph - N/A   Overcast
2:34 PM 39.2 °F - 39.2 °F 100% 29.56 in 10.0 mi Calm Calm - N/A   Overcast
2:51 PM 42.1 °F 39.2 °F 41.0 °F 96% 29.58 in 10.0 mi South 4.6 mph - N/A   Overcast
3:35 PM 39.2 °F - 39.2 °F 100% 29.55 in 9.0 mi Calm Calm - N/A   Overcast
3:51 PM 39.9 °F - 39.9 °F 100% 29.58 in 6.0 mi Calm Calm - 0.00 in Rain Light Rain
4:51 PM 43.0 °F 38.2 °F 42.1 °F 97% 29.55 in 10.0 mi SSW 8.1 mph - 0.04 in Rain Light Rain
5:51 PM 42.1 °F - 42.1 °F 100% 29.54 in 9.0 mi Calm Calm - 0.01 in Rain Light Rain
6:10 PM 44.6 °F 41.4 °F 42.8 °F 93% 29.51 in 5.0 mi SSW 5.8 mph - 0.01 in Rain Light Rain
6:37 PM 42.8 °F 39.3 °F 42.8 °F 100% 29.50 in 5.0 mi SSW 5.8 mph - 0.04 in Rain Rain
6:51 PM 41.0 °F 39.0 °F 41.0 °F 100% 29.53 in 1.8 mi East 3.5 mph - 0.05 in Rain Light Rain
7:02 PM 39.2 °F 37.0 °F 39.2 °F 100% 29.50 in 1.2 mi NE 3.5 mph - 0.02 in Rain Rain
7:18 PM 39.2 °F - 39.2 °F 100% 29.50 in 2.0 mi Calm Calm - 0.03 in Rain Light Rain
7:23 PM 39.2 °F 32.5 °F 39.2 °F 100% 29.51 in 1.2 mi NNW 10.4 mph - 0.04 in Rain Rain
7:26 PM 39.2 °F 33.0 °F 39.2 °F 100% 29.51 in 1.0 mi NNW 9.2 mph - 0.05 in Rain Rain
7:30 PM 39.2 °F 33.6 °F 39.2 °F 100% 29.52 in 0.8 mi NW 8.1 mph - 0.05 in Rain Rain
7:32 PM 39.2 °F 34.2 °F 39.2 °F 100% 29.52 in 1.2 mi WNW 6.9 mph - 0.05 in Rain Rain
7:35 PM 41.0 °F 39.0 °F 41.0 °F 100% 29.52 in 2.0 mi West 3.5 mph - 0.06 in Rain Rain
7:37 PM 41.0 °F 39.0 °F 41.0 °F 100% 29.52 in 4.0 mi Variable 3.5 mph - 0.07 in Rain Rain
7:51 PM 43.0 °F 37.2 °F 43.0 °F 100% 29.55 in 4.0 mi NW 10.4 mph - 0.11 in Rain Rain
8:48 PM 39.2 °F 31.6 °F 37.4 °F 93% 29.57 in 10.0 mi NW 12.7 mph 25.3 mph 0.07 in Rain Light Rain
8:51 PM 39.0 °F 31.0 °F 37.0 °F 93% 29.61 in 10.0 mi NNW 13.8 mph 24.2 mph 0.07 in Rain Light Rain
9:22 PM 37.4 °F 28.2 °F 37.4 °F 100% 29.59 in 10.0 mi NW 16.1 mph 25.3 mph 0.01 in Rain Light Rain
9:33 PM 37.4 °F 29.8 °F 35.6 °F 93% 29.60 in 9.0 mi NW 11.5 mph 26.5 mph 0.01 in Rain Light Rain
9:51 PM 37.0 °F 30.4 °F 35.1 °F 93% 29.63 in 8.0 mi NW 9.2 mph 23.0 mph 0.03 in Rain Light Rain
10:51 PM 36.0 °F 31.1 °F 35.1 °F 97% 29.63 in 10.0 mi NNW 5.8 mph - 0.01 in Rain Light Rain
11:13 PM 35.6 °F 29.9 °F 35.6 °F 100% 29.61 in 10.0 mi NW 6.9 mph - 0.01 in Rain Light Rain
11:51 PM 36.0 °F 32.1 °F 35.1 °F 97% 29.64 in 10.0 mi NNW 4.6 mph - 0.02 in Rain Light Rain